Location: Chippewa Lake
(41.0698°N, 81.9010°W)
Time: 02:09:53
(UTC+00:00)

Cosmos 1536 - Pass Details

Date: 09 May 2021
Orbit: 539 x 559 km, 82.5° (Epoch: 24 June)

Event Time Altitude Azimuth Distance (km) Brightness Sun altitude
Rises 03:42:49 0° 355° (N) 2,745 7.4 -27.0°
Reaches altitude 10° 03:45:02 10° 358° (N) 1,843 6.3 -27.2°
Enters shadow 03:47:37 37° 13° (NNE) 879 4.1 -27.4°
